Regional Weather Roundup
Issued by NWS Kansas City/Pleasant Hill, MO

Home | Current Version | Previous Version | Text Only | Print | Product List | Glossary On
Versions: 1 2 3 4 5 6 7 8 9 10 11 12 13 14 15 16 17 18 19 20 21 22 23 24 25 26 27 28 29 30 31 32 33 34 35 36 37 38 39 40 41 42 43 44 45 46 47 48 49 50
000
ASUS43 KEAX 241804
RWREAX

WEATHER ROUNDUP FOR EASTERN KANSAS AND NORTHWEST MISSOURI
NATIONAL WEATHER SERVICE KANSAS CITY/PLEASANT HILL MO
100 PM CDT FRI OCT 24 2014

KSZ040-057-103>105-MOZ028-029-037-043-241900-
...KANSAS CITY METROPOLITAN AREA...

CITY           SKY/WX    TMP DP  RH WIND       PRES   REMARKS
K.C. INTL      CLOUDY    70  62  76 SW13      30.01F
6HR MIN TEMP:  57; 6HR MAX TEMP:  70;

K.C. DOWNTOWN  CLOUDY    73  61  65 SW9       30.01F
6HR MIN TEMP:  55; 6HR MAX TEMP:  73;

LEES SUMMIT    CLOUDY    70  60  70 SW10      30.03F
6HR MIN TEMP:  54; 6HR MAX TEMP:  71;

OLATHE - IXD   CLOUDY    71  62  73 S14       30.04F
6HR MIN TEMP:  53; 6HR MAX TEMP:  71;

OLATHE - OJC   CLOUDY    71  62  73 S9        30.03F
6HR MIN TEMP:  53; 6HR MAX TEMP:  71;

LAWRENCE       CLOUDY    70  61  73 S10       30.02F

$$

MOZ001>008-011>017-020>025-030>033-038>040-044>046-053-054-241900-
...NORTHERN AND CENTRAL MISSOURI...

CITY           SKY/WX    TMP DP  RH WIND       PRES   REMARKS
ST. JOSEPH     CLOUDY    69  61  75 SW9       29.99F
6HR MIN TEMP:  57; 6HR MAX TEMP:  69;

MOSBY          MOCLDY    68  59  73 SE5       30.02F
WHITEMAN AFB   MOSUNNY   69  58  68 SW8       30.05F
6HR MIN TEMP:  56; 6HR MAX TEMP:  70;

CLINTON        CLOUDY    70  59  68 SW7       30.08S HAZE
SEDALIA        PTSUNNY   70  58  65 SW12      30.07F
6HR MIN TEMP:  58; 6HR MAX TEMP:  70;

WARSAW         NOT AVBL
MARSHALL       PTSUNNY   73  61  64 S7        30.05F
CHILLICOTHE      N/A     64  60  87 S8        30.02F
6HR MIN TEMP:  57; 6HR MAX TEMP:  64;

KIRKSVILLE     CLOUDY    62  61  96 S14       30.03F FOG
6HR MIN TEMP:  55; 6HR MAX TEMP:  62;


$$

MOZ041-047>049-056>058-063>065-088>090-097-241900-
...EASTERN AND SOUTHERN MISSOURI...

CITY           SKY/WX    TMP DP  RH WIND       PRES   REMARKS
ST. LOUIS INTL PTSUNNY   70  54  56 CALM      30.09F
6HR MIN TEMP:  54; 6HR MAX TEMP:  70;

SPIRIT OF STL  PTSUNNY   69  53  56 SW7       30.08F
COLUMBIA       CLOUDY    68  60  75 S8        30.08F
JEFFERSON CITY PTSUNNY   70  58  65 S6        30.08F
ROLLA          PTSUNNY   65  56  72 VRB5      30.10F
LEBANON        PTSUNNY   70  57  64 SW8       30.11F
OSAGE BEACH    CLOUDY    72  55  56 S9        30.09F
SPRINGFIELD    CLOUDY    73  58  59 SW9       30.10F
BRANSON        CLOUDY    73  57  56 CALM      30.14F
NEVADA         PTSUNNY   72  59  64 S7        30.09F
JOPLIN         PTSUNNY   72  59  63 SW13      30.10F
WEST PLAINS    MOSUNNY   68  55  63 W5        30.13F

$$

IAZ060-094-KSZ022-034>040-054-083-096-NEZ052-066-093-241900-
...KANSAS...SOUTHEAST NEBRASKA AND IOWA...

CITY           SKY/WX    TMP DP  RH WIND       PRES   REMARKS
TOPEKA         CLOUDY    72  63  73 SW8       30.01F
6HR MIN TEMP:  58; 6HR MAX TEMP:  73;

MANHATTAN      CLOUDY    73  63  70 SW13      30.00F
EMPORIA        CLOUDY    74  62  66 SW14      30.04F
CHANUTE        CLOUDY    71  61  70 SW9       30.07F
WICHITA        CLOUDY    75  62  64 S13       30.05F
OMAHA          CLOUDY    71  59  65 SW7       29.92F
LINCOLN        CLOUDY    71  57  61 SW9       29.95F
FALLS CITY     CLOUDY    72  62  71 SW13      29.95F
LAMONI         CLOUDY    60  59  96 S15       29.97F FOG
DES MOINES     CLOUDY    63  60  90 S14       29.93F FOG

$$




USA.gov is the U.S. government's official web portal to all federal, state and local government web resources and services.